GFSCGP_sfc_temp_273.txt.gz
Temp
45 40 37 42 44 44 44 42 41 44 45 43 42 43 49 53 48 51 54 52 52 56 60 60 59 57 56 54 55 56 53 52 50 47 46 46 46 47 47 48 51 51 50 49
39 36 44 47 45 44 42 39 40 43 44 42 41 41 50 54 53 56 56 54 56 54 53 59 57 56 56 57 56 54 56 52 51 48 47 46 46 46 47 48 49 50 49 48
37 39 45 45 42 42 41 39 40 39 43 42 37 37 44 51 52 55 57 57 58 58 53 56 57 57 55 54 54 56 54 53 51 50 47 46 46 45 45 46 46 47 48 47
38 40 41 37 40 42 36 41 40 40 38 33 38 30 42 52 52 51 52 52 54 56 54 57 58 56 55 56 53 54 53 52 51 49 47 46 44 43 44 45 45 45 47 46
34 35 34 35 38 41 37 40 38 37 33 29 31 29 38 45 50 52 51 50 50 51 53 53 57 58 58 54 54 54 51 50 49 48 47 45 43 44 44 44 44 43 44 45
31 37 36 36 37 37 39 36 35 33 31 20 32 34 33 44 49 49 50 50 51 51 51 51 52 52 53 53 51 49 49 49 48 47 46 45 44 43 42 42 41 41 41 42
30 31 33 37 32 36 34 30 23 21 18 23 30 31 37 47 49 50 52 49 49 49 49 49 49 49 52 52 49 48 48 47 47 46 45 45 44 43 43 41 40 40 39 39
25 24 31 36 34 31 29 30 26 20 22 27 30 28 41 49 50 50 51 51 50 48 49 48 49 49 51 51 48 49 46 47 46 46 45 44 44 42 41 41 40 39 39 39
22 28 32 34 36 36 32 25 31 24 18 21 29 35 45 47 48 48 49 49 48 48 48 49 49 49 48 48 50 50 48 47 47 46 44 43 43 42 41 41 40 39 39 42
32 25 29 31 34 34 33 34 26 22 15 14 29 31 37 43 45 46 47 47 47 48 48 48 48 49 49 49 49 46 48 48 46 44 44 44 42 42 41 40 39 39 39 39
25 29 24 27 24 27 27 25 26 27 26 22 21 30 41 45 48 46 46 47 47 47 47 47 47 48 48 46 45 47 45 45 44 44 42 41 41 41 40 39 39 39 39 38
33 26 20 23 27 29 28 30 29 23 23 25 26 30 45 45 47 47 49 50 47 47 47 47 47 47 46 47 46 47 46 45 46 44 43 41 40 40 39 38 38 38 37 38
33 26 13 20 23 25 21 29 31 30 27 21 21 31 43 43 41 44 46 48 50 49 47 47 46 46 47 47 46 45 45 45 43 42 41 39 39 38 37 37 38 38 37 37
40 30 24 29 26 22 16 19 28 25 17 28 34 35 39 42 42 45 45 47 50 50 50 47 46 47 47 48 48 47 45 44 42 41 40 39 38 38 37 37 37 37 36 36
32 25 27 32 29 25 25 18 24 27 34 29 38 36 43 47 48 48 49 50 49 49 47 47 47 48 47 46 46 46 45 43 43 41 39 39 37 37 37 36 36 36 35 35
29 24 25 23 32 32 28 28 25 31 33 35 38 35 42 45 45 45 48 49 48 48 49 49 50 50 48 48 46 46 44 42 42 40 39 37 37 36 35 35 35 34 34 33
26 25 24 25 31 28 22 28 29 28 30 36 31 40 44 43 46 49 52 54 53 49 50 51 51 51 50 47 47 44 42 39 40 38 36 37 36 35 33 34 33 32 32 32
27 26 27 25 24 17 33 37 36 35 38 40 41 45 48 49 49 51 54 52 55 55 53 50 53 50 47 44 42 41 38 39 37 36 35 35 34 33 32 30 30 27 27 28
33 31 26 23 23 30 33 34 31 27 32 40 41 43 45 47 46 47 53 54 54 55 53 53 53 52 46 43 41 38 35 35 35 35 35 34 34 32 31 30 27 25 30 28
32 33 28 25 20 17 32 41 42 33 30 22 30 42 42 42 34 44 48 51 52 51 50 50 45 42 42 39 37 37 35 35 35 34 35 34 33 32 31 30 28 29 31 29
25 27 23 24 22 26 28 29 37 21 25 24 25 24 25 30 34 37 43 46 45 44 43 42 40 41 41 36 36 36 34 35 37 33 32 32 32 32 31 28 26 32 31 29
24 23 23 23 21 19 24 26 23 22 25 23 23 23 24 26 28 29 31 35 39 38 39 37 36 36 34 33 36 33 34 35 30 31 31 31 31 31 30 29 28 32 30 28
20 22 20 19 19 25 25 24 25 24 23 22 22 23 23 24 24 24 24 27 31 33 34 33 35 30 25 27 31 33 33 30 29 29 30 30 29 30 30 29 30 30 30 28
23 26 19 20 25 23 24 24 24 24 22 22 22 21 21 21 23 22 23 24 25 26 28 32 31 30 30 26 29 29 30 29 30 30 29 27 28 28 28 30 30 31 30 29
19 22 20 22 24 27 21 18 17 20 20 19 19 20 20 21 21 20 21 23 23 23 24 25 27 30 31 30 28 25 28 29 29 28 28 28 29 28 28 30 31 31 32 31
19 14 15 17 19 19 23 18 15 15 14 15 14 15 18 20 19 18 18 20 20 19 21 21 21 22 26 30 31 30 30 30 30 29 28 28 28 28 29 29 30 34 34 34

GFSCGP_sfc_temp_276.txt.gz
Temp
41 37 34 42 44 43 43 41 41 44 45 41 40 43 50 54 46 47 50 51 50 52 57 56 57 56 57 57 56 56 53 51 50 45 44 44 45 45 45 46 49 48 48 48
36 32 40 43 43 42 41 39 38 44 44 42 40 41 49 53 51 53 55 55 55 56 51 55 54 54 56 56 56 54 55 51 51 47 45 45 44 44 45 46 47 48 47 47
34 38 42 42 37 39 37 38 38 40 42 39 36 38 43 49 49 52 57 58 57 57 55 53 55 55 56 56 55 55 54 52 51 48 46 44 44 43 44 44 45 46 47 46
35 38 39 36 37 39 33 39 39 38 36 31 35 30 39 51 53 50 51 50 53 54 54 57 56 52 54 56 54 55 54 52 50 49 46 45 43 43 43 43 44 44 45 45
33 33 33 34 36 40 35 37 36 34 32 28 27 28 34 44 48 53 51 49 49 51 51 53 56 57 56 55 53 54 53 52 51 49 48 45 43 43 43 42 43 42 43 44
33 35 34 35 34 35 38 35 33 30 28 19 31 33 31 44 48 50 50 49 50 49 48 50 53 57 55 53 53 52 52 51 49 49 46 45 44 42 41 40 40 40 40 41
30 31 32 36 32 34 33 29 20 18 14 22 29 29 36 44 48 50 51 53 49 47 47 48 48 49 48 49 50 51 50 49 48 48 47 45 44 43 42 41 40 38 38 38
24 24 31 35 34 31 29 29 24 17 19 26 30 27 39 47 50 50 51 51 49 48 47 47 47 50 51 51 51 52 49 50 47 47 46 45 44 42 41 41 39 39 38 38
20 28 31 33 32 33 30 25 31 24 16 19 28 33 43 46 44 47 48 47 48 48 48 48 47 46 48 50 51 53 50 50 48 47 46 44 42 41 40 40 39 38 38 40
32 24 29 31 32 32 30 33 25 21 15 12 28 28 35 41 44 44 44 45 46 45 45 46 46 46 48 51 53 52 51 49 47 46 45 44 43 41 40 39 38 38 38 38
25 28 24 27 24 28 27 25 23 23 24 20 20 30 39 43 45 44 45 46 45 46 45 45 45 46 46 45 45 47 44 44 43 44 43 41 41 40 39 38 38 38 38 37
35 29 19 22 26 28 28 29 28 21 21 22 25 31 42 42 42 44 45 47 46 45 45 44 45 44 44 44 42 44 44 43 45 44 42 41 40 40 38 37 37 37 36 37
35 28 17 20 22 24 20 28 30 29 26 21 21 33 42 41 40 41 43 43 46 46 45 45 44 44 44 43 43 43 44 45 42 41 41 40 40 39 38 37 37 36 36 36
42 29 28 25 24 22 16 17 28 25 17 31 34 36 37 39 42 43 44 43 46 46 48 46 44 44 44 45 44 45 46 45 41 41 41 40 39 39 37 37 36 36 35 35
34 25 28 34 31 26 25 18 23 27 34 28 39 35 40 43 43 44 44 46 46 47 46 46 46 47 46 43 43 45 46 42 41 41 40 40 39 38 37 36 35 35 34 34
29 28 26 28 34 31 28 30 22 29 33 35 37 34 39 44 43 42 45 45 45 46 47 48 48 46 46 48 49 46 45 41 41 42 40 39 37 37 36 35 34 33 33 33
26 26 23 23 30 29 21 27 29 30 30 34 30 38 43 42 44 47 49 48 48 48 49 48 47 49 50 49 48 44 44 39 40 40 38 37 37 36 35 34 33 33 32 32
26 25 26 25 23 17 32 35 35 33 37 38 41 44 47 47 48 48 47 46 50 51 52 50 50 49 46 46 44 45 39 39 38 37 36 36 36 35 33 33 32 30 29 28
33 29 25 22 22 29 32 33 27 28 28 25 26 28 32 32 38 39 34 35 37 41 47 48 46 48 49 45 45 39 35 36 36 36 36 35 36 34 33 32 31 26 27 30
32 32 27 25 20 18 28 32 29 31 27 24 24 23 23 26 29 28 29 31 32 34 35 38 40 41 39 43 37 36 35 35 36 37 36 35 35 35 33 33 30 26 23 29
21 24 22 22 21 24 23 25 27 21 19 23 24 23 23 21 23 27 28 28 29 30 29 32 33 36 37 35 35 35 33 34 38 35 34 33 34 34 34 31 26 29 28 30
21 19 21 23 19 16 25 25 23 21 24 23 22 22 22 24 25 26 25 25 26 25 25 27 27 30 34 31 33 31 33 33 29 30 32 32 32 33 31 30 28 29 30 29
18 16 17 17 17 24 25 24 25 25 24 22 21 21 22 21 22 24 22 23 22 22 25 25 24 25 28 30 30 30 29 28 27 27 28 29 29 31 31 30 29 29 30 29
22 25 18 18 23 22 22 21 21 23 21 21 21 20 20 18 21 22 22 22 22 23 21 22 22 21 22 25 27 29 29 27 28 27 25 26 29 29 29 30 31 30 30 29
21 21 19 20 24 20 17 17 17 20 20 19 19 19 18 18 19 20 20 20 20 21 19 19 19 20 19 22 26 28 29 25 25 25 25 27 30 29 29 30 31 31 32 31
17 13 16 15 14 17 18 15 15 15 14 15 14 14 17 17 17 17 15 16 16 15 15 16 17 16 17 19 22 24 28 27 23 25 24 28 29 29 30 30 29 35 34 34

GFSCGP_sfc_temp_279.txt.gz
Temp
40 35 32 41 40 39 38 37 38 41 44 40 39 40 49 53 45 44 49 50 50 51 58 55 56 55 54 55 56 56 53 50 50 44 42 42 44 43 43 44 47 47 46 46
35 32 39 40 40 40 39 37 38 43 42 39 38 38 46 50 48 52 53 55 55 57 54 54 53 54 55 55 56 55 55 51 52 49 43 45 44 43 44 44 45 46 46 45
32 36 40 39 36 36 34 33 34 38 40 38 36 41 44 47 46 50 52 57 58 56 56 53 52 54 55 55 56 56 55 52 52 50 46 42 43 42 42 43 43 45 45 45
33 37 38 35 35 37 31 36 37 35 34 29 34 32 40 47 49 49 52 50 53 53 55 55 53 53 54 56 57 56 54 52 51 49 48 44 43 42 42 43 43 43 44 44
33 32 33 33 35 38 34 35 35 32 29 27 26 28 34 40 45 50 53 50 49 51 52 53 54 55 56 57 55 55 53 52 52 50 51 48 42 43 42 42 42 41 42 43
33 33 34 35 33 34 36 34 32 28 27 16 28 32 42 42 48 48 47 48 50 48 48 49 52 55 55 55 53 53 52 51 51 50 49 49 46 43 41 40 40 40 40 40
30 31 32 35 32 33 32 29 18 14 11 19 25 27 38 44 49 48 51 53 50 47 46 46 47 50 52 50 50 52 51 50 49 49 48 48 47 45 44 42 41 38 38 37
24 22 30 33 34 32 29 29 23 15 16 24 28 25 35 44 46 48 49 50 50 46 46 46 47 48 49 50 49 52 49 51 48 48 48 48 48 46 44 43 40 39 38 38
20 27 30 33 32 33 30 24 29 23 14 17 27 31 40 45 45 44 47 46 48 47 47 47 46 46 46 48 50 51 50 51 49 49 48 46 45 43 42 41 40 38 38 39
32 24 28 30 31 31 30 33 25 20 13 12 27 28 33 42 45 43 44 45 45 44 45 46 46 45 46 47 50 51 51 51 48 47 46 46 45 42 41 39 38 38 37 38
28 29 23 27 23 27 26 24 22 23 23 19 18 28 37 41 43 46 44 43 43 43 44 44 43 43 43 43 44 45 45 45 43 45 44 42 41 40 39 39 38 38 37 37
35 29 19 22 26 27 26 28 27 20 19 20 23 31 41 41 42 41 42 45 42 44 44 43 42 42 42 42 41 42 42 42 44 43 42 42 41 40 39 39 38 37 36 36
34 28 21 24 25 23 18 28 30 28 26 19 21 33 39 38 37 39 42 44 46 44 41 43 42 42 43 43 42 41 41 42 41 40 39 38 40 39 39 39 37 37 36 35
42 29 27 25 28 26 21 19 28 26 19 32 31 36 35 37 38 39 39 44 46 45 45 44 43 43 43 43 42 42 42 42 40 41 40 39 39 40 40 39 37 36 36 35
35 27 29 31 31 27 28 24 25 26 32 26 38 36 38 41 38 38 39 43 44 45 45 45 45 44 43 42 42 43 44 41 41 41 39 41 40 40 39 37 37 35 35 34
30 26 28 29 32 33 28 28 28 31 31 33 35 33 39 40 38 40 42 42 42 42 44 47 47 45 44 44 43 43 42 40 39 41 41 40 38 37 37 37 35 34 33 33
27 26 26 25 32 30 22 29 30 27 29 33 27 37 42 42 42 36 32 32 32 33 34 36 41 46 47 47 45 43 44 40 39 40 39 38 38 37 36 35 34 34 33 32
26 25 26 24 24 18 32 36 37 35 39 37 38 41 31 29 30 29 29 28 29 30 31 31 32 34 38 42 43 41 39 37 38 38 37 37 36 36 35 34 34 33 32 31
30 26 23 20 20 26 31 28 25 27 23 24 23 25 26 27 29 27 29 29 28 28 29 29 30 31 34 36 37 38 36 35 35 35 36 36 36 35 34 34 33 32 29 25
29 30 23 22 18 15 23 24 27 26 19 22 24 22 22 26 24 23 28 28 27 28 28 27 27 29 30 31 31 32 34 34 33 37 38 37 36 36 34 35 33 27 28 31
18 22 20 21 19 18 23 24 27 21 16 23 23 22 22 21 22 26 28 26 27 27 25 27 26 26 27 28 28 29 32 30 33 31 31 33 35 36 35 34 30 29 28 26
11 13 14 16 16 12 25 24 20 21 24 23 23 23 22 23 25 26 25 25 24 23 23 24 22 24 25 25 25 26 27 30 30 28 29 30 31 33 33 32 29 29 28 27
13 17 12 16 16 22 24 22 25 25 24 23 21 21 20 20 21 22 23 23 21 21 22 22 19 21 20 21 22 24 25 28 28 27 27 27 29 31 32 31 29 28 29 29
20 24 18 14 20 20 20 20 21 22 21 22 21 19 19 17 19 20 22 22 21 21 20 18 18 17 17 18 20 21 23 26 27 26 24 23 25 26 29 31 31 31 29 29
19 20 14 17 20 20 16 15 17 20 21 19 19 19 17 17 18 19 18 18 18 18 18 15 16 16 15 16 16 19 20 22 24 26 24 22 24 26 27 30 32 32 33 34
14 10 14 13 12 14 16 15 14 14 14 15 14 13 16 15 15 15 13 14 14 13 13 13 12 11 11 12 15 17 17 19 20 24 26 24 23 23 25 27 26 35 35 35

GFSCGP_sfc_temp_285.txt.gz
Temp
37 33 29 34 43 37 36 34 35 38 43 40 38 41 46 52 48 46 51 55 56 55 60 60 58 57 57 56 56 56 55 54 52 49 48 48 49 49 48 49 50 50 51 49
33 31 38 36 36 37 35 33 34 37 41 40 38 40 46 49 51 53 55 56 58 60 57 60 58 56 56 56 56 56 56 54 53 53 52 50 49 48 51 49 49 50 50 49
35 37 37 38 33 34 33 34 32 35 37 36 34 39 46 45 48 51 55 57 57 58 60 56 56 55 55 55 56 57 56 54 55 55 49 46 47 46 47 47 48 48 49 47
35 37 35 33 34 36 33 34 35 34 33 27 31 29 41 45 51 46 49 52 53 54 54 55 55 54 54 56 58 58 57 55 55 52 51 49 52 49 49 50 49 47 48 47
34 31 33 33 34 38 34 34 33 33 29 26 25 27 36 39 42 47 50 50 50 49 48 52 53 55 55 55 56 57 56 55 54 52 53 51 52 53 47 47 47 47 46 47
33 33 34 35 34 36 34 32 31 27 27 16 26 29 42 42 43 44 46 48 49 49 50 48 49 51 51 53 54 55 54 53 53 52 52 52 51 48 46 46 46 45 45 45
31 32 32 35 32 33 33 30 19 15 12 20 23 26 43 44 45 45 47 47 47 47 47 47 47 47 48 49 51 53 53 51 51 50 52 52 51 50 49 47 47 44 44 44
24 22 31 34 35 32 30 31 23 15 16 23 25 24 36 40 43 43 43 45 45 46 46 46 47 45 46 47 49 52 50 50 50 50 51 52 51 51 51 48 47 47 46 47
19 25 30 33 33 37 30 26 32 23 13 18 26 30 37 42 42 43 44 43 45 45 46 46 46 45 45 46 48 51 49 48 48 49 50 50 48 48 48 47 47 46 47 45
30 23 28 30 33 31 32 33 26 21 13 12 27 27 34 43 44 43 42 41 43 45 45 44 43 44 44 44 46 48 49 48 48 49 49 49 48 49 49 46 45 44 45 44
28 30 22 27 23 27 28 26 24 25 24 20 17 28 35 36 38 38 37 38 39 40 40 40 41 40 41 42 43 44 45 44 45 47 47 47 46 47 46 46 46 45 44 43
30 26 23 20 24 27 29 33 28 21 19 19 22 26 37 37 38 37 36 38 38 38 38 39 40 40 40 40 41 42 42 42 44 46 44 44 44 44 45 45 45 44 43 42
28 25 12 22 24 24 18 26 30 28 26 18 21 29 37 36 35 33 32 33 34 34 34 35 36 37 38 39 39 40 41 41 41 41 41 40 41 43 44 44 42 42 42 41
30 27 23 23 26 20 17 20 28 31 24 31 28 32 33 34 33 29 29 30 31 31 32 32 32 33 34 35 36 38 40 40 40 39 39 40 41 42 42 42 41 41 41 40
26 19 28 28 29 25 21 20 24 25 32 29 37 34 37 36 31 28 29 29 28 28 28 29 29 30 31 32 33 34 35 37 39 39 38 39 39 39 39 39 39 40 39 40
23 18 23 24 31 31 28 29 24 29 31 33 35 35 38 33 30 28 27 27 26 26 27 27 28 28 29 29 29 31 32 33 35 37 38 38 38 38 38 38 38 38 38 37
18 21 16 14 25 27 23 29 22 28 32 34 28 35 33 30 26 25 26 26 26 26 26 26 26 26 28 27 27 27 30 32 33 33 35 37 37 36 36 37 37 37 37 37
20 19 19 15 14 9 25 23 25 31 26 26 29 23 27 26 26 26 27 26 26 26 25 26 25 26 27 27 26 29 30 29 29 29 30 32 33 33 34 33 35 35 35 35
25 21 17 14 12 22 27 20 17 18 17 22 21 23 24 25 26 23 27 27 26 26 25 25 25 26 26 25 25 28 27 26 27 27 28 28 30 31 32 32 34 35 34 34
27 25 17 12 10 8 15 21 25 24 11 22 23 22 22 27 21 20 24 26 25 25 25 23 24 26 24 23 23 25 24 23 21 23 25 28 29 30 31 33 34 34 35 35
6 9 9 8 9 14 20 24 26 13 12 22 22 21 20 19 20 22 25 25 25 24 23 23 22 22 22 22 21 20 22 19 21 21 23 27 29 29 31 33 32 33 34 34
10 5 4 7 8 6 23 24 18 20 24 23 20 19 19 20 21 21 22 22 22 21 21 21 19 19 19 18 18 16 17 18 18 19 21 23 28 30 31 31 32 31 33 32
4 11 8 12 13 21 24 25 22 24 22 20 19 19 18 18 18 20 19 20 19 18 19 18 16 17 16 15 15 13 14 16 14 16 18 21 25 29 30 30 30 30 32 32
11 14 17 15 14 17 19 19 20 21 19 20 19 18 17 15 18 18 19 18 18 17 16 15 15 14 13 14 14 13 14 13 12 12 15 19 21 24 29 30 30 31 30 31
18 14 10 15 21 19 16 15 16 19 18 17 17 16 15 15 15 16 15 15 15 14 14 12 12 13 12 12 11 11 12 10 9 11 14 17 20 22 26 29 29 30 32 33
12 10 14 15 11 11 14 14 13 13 12 13 12 11 13 12 11 12 11 12 11 11 10 9 10 9 8 8 8 9 9 9 7 9 12 14 17 20 24 27 28 33 34 35

GFSCGP_sfc_temp_288.txt.gz
Temp
49 46 42 48 51 53 54 49 49 55 53 49 51 53 58 62 62 61 63 65 67 69 74 74 70 69 68 68 67 67 64 64 62 60 59 59 58 57 59 61 61 60 60 58
42 40 51 53 52 50 49 46 47 52 51 47 51 50 57 60 60 61 62 64 66 69 72 72 68 66 67 66 65 65 64 63 61 60 59 60 60 59 61 60 60 58 57 57
44 51 50 47 45 42 44 44 46 46 49 50 46 47 55 63 63 64 65 66 67 68 69 71 67 66 66 64 63 63 63 62 60 59 60 59 59 59 57 55 55 55 57 57
43 53 45 41 42 44 40 50 46 45 42 40 45 41 54 61 60 57 60 62 64 66 67 68 69 65 64 64 64 63 63 62 61 60 58 55 55 53 56 54 55 57 56 56
41 41 41 42 43 46 44 47 45 45 42 41 43 38 52 54 54 59 64 65 67 67 66 65 66 65 66 64 63 62 63 62 60 60 59 57 57 59 59 56 55 54 54 54
43 43 45 46 41 45 43 42 40 40 40 30 43 41 47 57 60 62 64 64 62 63 62 62 62 63 65 64 62 61 62 61 60 60 59 58 58 57 53 55 54 53 53 53
40 39 41 43 39 40 41 40 31 27 25 29 44 39 47 58 60 61 64 64 63 62 62 63 61 59 60 59 59 60 60 59 60 58 59 59 59 58 56 55 55 54 52 51
32 30 38 42 43 39 36 40 34 26 29 37 34 34 47 56 61 58 56 57 59 60 60 59 59 58 58 57 58 58 58 58 58 57 58 58 60 58 59 58 58 56 54 53
31 32 39 37 44 46 36 31 45 34 25 31 39 43 47 53 55 57 54 55 56 56 56 54 55 56 56 56 57 58 58 57 57 56 56 56 58 57 57 57 57 56 55 54
34 29 34 36 40 41 40 44 32 33 26 25 37 41 45 51 54 46 46 47 49 50 50 50 51 51 53 54 57 58 59 58 56 56 57 57 57 58 58 56 55 54 55 54
32 32 31 33 31 36 35 35 34 35 35 31 31 41 46 44 45 42 42 43 44 44 44 46 47 48 50 52 53 55 55 56 55 55 56 56 56 57 57 55 55 54 54 52
28 26 27 32 35 35 41 40 39 32 28 33 33 40 45 43 43 43 40 40 41 41 42 42 43 44 45 46 49 50 52 53 54 55 54 54 55 55 55 54 55 54 52 52
25 25 21 27 29 30 28 36 38 41 34 33 28 37 44 42 40 40 39 39 39 39 40 40 40 39 40 41 43 46 47 49 50 53 52 53 53 53 53 54 54 54 53 51
32 21 19 16 21 26 25 28 34 33 29 34 35 42 40 41 39 38 37 37 37 36 36 37 37 37 38 38 39 40 42 43 46 48 50 50 51 52 53 54 53 52 52 50
26 16 20 21 23 27 27 25 28 29 34 31 38 41 45 42 35 33 36 36 35 34 33 33 33 34 35 35 36 37 39 40 42 46 47 48 49 50 51 50 50 50 49 49
26 17 20 19 26 29 24 27 29 29 32 37 40 40 37 32 31 29 30 32 31 31 32 31 31 32 32 31 32 35 36 36 38 39 41 44 46 47 47 48 48 48 46 47
20 19 17 13 25 24 20 25 26 31 33 34 30 40 40 31 29 29 29 30 28 28 29 29 29 30 29 29 30 32 33 34 35 34 35 36 38 41 42 45 45 43 44 45
19 17 17 14 18 10 23 27 25 22 21 24 24 26 29 29 28 28 29 27 26 27 27 27 27 28 28 28 28 31 30 30 30 31 31 32 32 33 36 37 38 39 40 37
27 21 13 12 14 21 22 23 20 18 16 22 22 23 26 26 28 23 26 28 26 26 26 26 27 28 27 25 27 29 27 26 25 25 27 28 30 31 32 33 34 34 35 34
25 24 17 14 9 8 17 25 29 25 13 22 22 22 22 27 22 19 24 25 26 26 26 24 25 26 24 23 24 25 23 21 19 20 22 25 28 30 31 32 33 35 35 34
13 14 11 12 9 17 22 26 30 14 14 23 23 22 21 20 20 22 24 24 25 25 24 24 24 23 21 20 21 20 20 16 18 18 20 24 26 28 32 32 33 33 34 34
13 11 11 13 10 7 25 28 19 22 25 24 22 21 21 22 22 21 23 23 23 22 22 22 21 21 20 18 18 16 15 16 16 16 18 20 23 27 30 31 32 33 33 33
12 19 14 15 15 25 24 23 23 24 26 22 21 21 20 20 19 21 20 21 19 19 19 19 18 18 17 16 15 14 14 14 13 13 14 17 21 24 26 29 31 32 33 33
20 21 17 17 22 24 22 21 21 21 19 21 21 20 20 18 20 20 20 20 19 19 17 17 16 15 15 15 14 13 14 13 11 11 13 16 18 20 24 28 31 32 32 32
23 23 18 18 23 23 18 17 17 18 18 17 18 18 17 17 17 17 17 17 18 17 17 15 14 14 14 13 12 12 11 11 10 11 12 14 17 19 21 26 27 30 33 33
25 20 17 17 17 17 20 16 13 15 13 13 13 14 15 14 14 15 14 15 14 13 14 12 12 11 11 11 10 10 9 8 7 8 12 13 14 17 21 23 24 30 32 35

GFSCGP_sfc_temp_291.txt.gz
Temp
51 45 44 50 54 54 54 53 53 60 65 54 54 56 61 67 68 67 68 69 70 72 77 81 81 79 76 77 76 75 71 68 66 62 60 60 59 61 63 64 63 62 62 61
47 40 53 57 56 53 51 49 50 56 61 57 53 52 60 64 66 67 67 68 70 72 75 76 79 79 74 74 73 73 71 67 64 62 61 61 61 61 62 62 61 62 60 58
45 51 56 51 51 48 50 48 50 49 56 58 51 48 54 63 67 67 68 70 72 71 72 75 77 77 74 71 70 70 70 66 64 63 62 62 61 60 58 58 57 58 57 57
48 55 51 51 47 50 41 53 51 48 46 40 54 40 54 62 65 69 69 70 70 71 73 74 74 75 73 71 71 70 69 65 64 62 60 59 56 54 56 56 55 54 57 57
44 47 45 43 48 51 44 51 50 48 44 43 46 39 49 61 60 65 69 70 71 72 73 73 74 73 73 69 68 67 67 65 63 61 60 59 56 58 58 56 53 54 55 56
43 53 47 49 52 52 52 46 43 44 42 31 43 44 45 54 60 66 72 71 70 70 69 69 69 69 71 70 67 65 64 63 62 60 60 59 57 57 55 53 52 53 54 54
39 42 48 46 43 45 47 40 30 26 26 27 47 43 48 60 63 64 66 68 68 68 66 66 66 66 64 66 65 64 63 62 62 60 60 59 59 58 57 54 54 54 53 53
25 29 44 48 43 42 40 41 34 24 28 34 46 37 49 62 65 67 64 62 62 64 63 59 59 60 61 62 63 63 61 62 62 60 60 60 60 60 59 57 57 56 55 55
20 28 43 43 46 47 41 33 46 34 37 31 41 45 54 57 58 61 57 59 57 55 54 54 54 55 57 59 60 61 61 61 62 60 60 60 61 60 58 58 58 58 58 56
25 18 37 40 42 44 42 45 33 35 24 23 34 40 45 53 55 50 50 50 50 50 49 49 50 51 54 55 58 60 62 61 61 60 60 60 60 61 60 59 58 57 56 55
25 21 27 35 32 36 38 34 38 37 36 30 29 39 46 46 47 45 44 45 45 45 45 45 46 48 49 52 54 56 58 59 59 58 58 58 58 60 59 58 58 57 56 54
26 21 17 23 38 39 35 37 39 30 30 37 36 39 47 46 45 45 42 43 44 44 44 44 44 44 44 45 48 49 52 55 56 57 57 57 58 58 57 57 57 56 55 54
23 19 12 19 31 29 24 28 33 35 37 29 28 36 47 44 43 43 41 42 41 41 41 41 41 40 41 42 43 45 45 46 50 54 55 55 56 56 56 56 56 56 55 53
31 20 15 10 16 22 17 23 27 26 22 30 33 39 44 43 41 41 40 40 39 39 38 38 37 37 38 38 40 41 42 43 47 50 52 52 54 55 55 56 55 54 55 52
26 13 17 20 23 23 22 22 24 23 27 25 33 38 47 49 40 37 39 38 36 35 34 34 33 33 33 34 37 38 38 39 42 44 46 48 51 53 54 54 54 53 53 53
25 14 18 12 22 24 21 26 26 28 30 28 34 37 37 36 36 33 33 33 31 31 31 32 32 32 31 30 32 34 34 35 37 38 38 39 42 46 48 50 50 50 49 49
20 17 14 9 22 22 15 23 23 25 22 22 23 26 32 33 29 29 30 29 28 28 29 28 29 30 29 29 31 30 31 32 32 32 33 33 35 36 37 40 45 44 45 47
19 17 17 12 14 8 21 26 24 22 22 23 23 24 26 26 26 26 28 27 26 26 26 26 28 28 27 27 28 31 28 27 27 27 28 29 30 31 33 34 35 37 39 36
27 20 13 9 10 18 24 22 20 19 18 22 22 23 24 25 25 22 26 26 26 26 26 26 27 26 26 24 26 27 24 24 23 22 24 25 27 29 31 31 32 32 32 33
26 24 16 14 5 5 16 24 30 27 15 23 23 22 22 25 20 19 24 24 24 23 24 25 26 26 24 22 24 24 21 19 17 19 20 23 25 27 29 31 32 33 32 32
14 16 12 12 9 15 22 28 31 14 14 24 24 23 22 19 20 22 24 23 23 24 24 25 26 23 22 21 22 20 19 15 17 17 19 21 23 25 28 29 32 33 32 32
14 12 12 13 8 6 29 27 18 22 26 26 25 23 22 23 23 22 22 22 22 21 22 22 22 21 20 18 18 17 15 16 15 15 17 18 20 24 26 27 30 32 33 32
13 19 15 16 16 26 30 26 28 25 24 24 24 24 23 23 23 24 23 22 21 21 21 20 19 19 17 16 15 14 14 14 13 13 14 16 19 21 23 24 27 30 32 33
22 26 18 18 22 25 27 26 24 23 22 22 22 22 22 20 21 21 22 22 21 21 19 19 17 16 15 16 14 13 13 11 10 11 13 15 16 18 20 23 26 26 28 30
24 25 19 19 24 28 27 23 23 23 21 19 19 19 18 18 19 19 19 19 19 19 19 17 15 15 15 15 13 12 11 9 9 10 12 15 16 17 18 21 24 24 27 29
26 21 18 17 27 25 27 24 20 19 20 18 16 16 18 17 16 17 16 17 16 15 15 13 13 13 13 13 12 11 9 7 6 7 11 12 13 15 17 19 21 25 28 29